QPF
0.00 0.00 0.00 0.00 0.00 0.00 0.00 0.00 0.00 0.00 0.00 0.00 0.00 0.00 0.00 0.00 0.00 0.00 0.00 0.00 0.00 0.00 0.00 0.00 0.00 0.00 0.00 0.00 0.02 0.10 0.20 0.15 0.19 0.20 0.11 0.02 0.00 0.01 0.00 0.00 0.10 0.25 0.26 0.04 0.01 0.00 0.00 0.00 0.00
0.00 0.00 0.00 0.00 0.00 0.00 0.00 0.00 0.00 0.00 0.00 0.00 0.00 0.00 0.00 0.00 0.00 0.00 0.00 0.00 0.00 0.00 0.00 0.00 0.00 0.00 0.00 0.01 0.06 0.10 0.23 0.13 0.10 0.08 0.02 0.02 0.03 0.01 0.00 0.01 0.14 0.14 0.10 0.00 0.00 0.00 0.00 0.00 0.00
0.00 0.00 0.00 0.00 0.00 0.00 0.00 0.00 0.00 0.00 0.00 0.00 0.00 0.00 0.00 0.00 0.00 0.00 0.00 0.00 0.00 0.00 0.00 0.00 0.00 0.00 0.00 0.01 0.04 0.10 0.19 0.15 0.05 0.01 0.00 0.02 0.00 0.00 0.00 0.00 0.01 0.01 0.00 0.00 0.00 0.00 0.00 0.00 0.00
0.00 0.00 0.00 0.00 0.00 0.00 0.00 0.00 0.00 0.00 0.00 0.00 0.00 0.00 0.00 0.00 0.00 0.00 0.00 0.00 0.00 0.00 0.00 0.00 0.00 0.00 0.00 0.01 0.02 0.05 0.07 0.16 0.03 0.03 0.01 0.01 0.01 0.00 0.00 0.00 0.00 0.00 0.00 0.00 0.00 0.00 0.00 0.00 0.00
0.00 0.00 0.00 0.00 0.00 0.00 0.00 0.00 0.00 0.00 0.00 0.00 0.00 0.00 0.00 0.00 0.00 0.00 0.00 0.00 0.00 0.00 0.00 0.00 0.00 0.00 0.00 0.02 0.02 0.02 0.03 0.11 0.04 0.03 0.03 0.04 0.04 0.00 0.00 0.00 0.00 0.00 0.00 0.00 0.00 0.00 0.00 0.00 0.00
0.00 0.00 0.00 0.00 0.00 0.00 0.00 0.00 0.00 0.00 0.00 0.00 0.00 0.00 0.00 0.00 0.00 0.00 0.00 0.00 0.00 0.00 0.00 0.00 0.00 0.00 0.01 0.01 0.01 0.00 0.00 0.01 0.09 0.14 0.05 0.04 0.06 0.01 0.00 0.00 0.00 0.00 0.00 0.00 0.00 0.00 0.00 0.00 0.00
0.00 0.00 0.00 0.00 0.00 0.00 0.00 0.00 0.00 0.00 0.00 0.00 0.00 0.00 0.00 0.00 0.00 0.00 0.00 0.00 0.00 0.00 0.00 0.00 0.00 0.00 0.00 0.00 0.00 0.00 0.00 0.00 0.05 0.11 0.05 0.03 0.01 0.00 0.00 0.00 0.00 0.00 0.00 0.00 0.00 0.00 0.00 0.00 0.00
0.00 0.00 0.00 0.00 0.00 0.00 0.00 0.00 0.00 0.00 0.00 0.00 0.00 0.00 0.00 0.00 0.00 0.00 0.00 0.00 0.00 0.00 0.00 0.00 0.00 0.00 0.00 0.00 0.00 0.00 0.00 0.00 0.07 0.07 0.06 0.03 0.00 0.00 0.00 0.00 0.00 0.00 0.00 0.00 0.00 0.00 0.00 0.00 0.00
0.00 0.00 0.00 0.00 0.00 0.00 0.00 0.00 0.00 0.00 0.00 0.00 0.00 0.00 0.00 0.00 0.00 0.00 0.00 0.00 0.00 0.00 0.00 0.00 0.00 0.00 0.00 0.00 0.00 0.00 0.00 0.00 0.06 0.08 0.06 0.01 0.00 0.00 0.00 0.00 0.00 0.00 0.00 0.00 0.00 0.00 0.00 0.00 0.00
0.00 0.00 0.00 0.00 0.00 0.00 0.00 0.00 0.00 0.00 0.00 0.00 0.00 0.00 0.00 0.00 0.00 0.00 0.00 0.00 0.00 0.00 0.00 0.00 0.00 0.00 0.00 0.00 0.00 0.00 0.00 0.00 0.00 0.00 0.00 0.00 0.00 0.00 0.00 0.00 0.00 0.00 0.00 0.00 0.00 0.00 0.00 0.00 0.00
0.00 0.00 0.00 0.00 0.00 0.00 0.00 0.00 0.00 0.00 0.00 0.00 0.00 0.00 0.00 0.00 0.00 0.00 0.00 0.00 0.00 0.00 0.00 0.00 0.00 0.00 0.00 0.00 0.00 0.00 0.00 0.00 0.00 0.00 0.00 0.00 0.00 0.00 0.00 0.00 0.00 0.00 0.00 0.00 0.00 0.00 0.00 0.00 0.00
0.00 0.00 0.00 0.00 0.00 0.00 0.00 0.00 0.00 0.00 0.00 0.00 0.00 0.00 0.00 0.00 0.00 0.00 0.00 0.00 0.00 0.00 0.00 0.00 0.00 0.00 0.00 0.00 0.00 0.00 0.00 0.00 0.00 0.00 0.00 0.00 0.00 0.00 0.00 0.00 0.00 0.00 0.00 0.00 0.00 0.00 0.00 0.00 0.00
0.00 0.00 0.00 0.00 0.00 0.00 0.00 0.00 0.00 0.00 0.00 0.00 0.00 0.00 0.00 0.00 0.00 0.00 0.00 0.00 0.00 0.00 0.00 0.00 0.00 0.00 0.00 0.00 0.00 0.00 0.00 0.00 0.00 0.00 0.00 0.00 0.00 0.00 0.00 0.00 0.00 0.00 0.00 0.00 0.00 0.00 0.00 0.00 0.00
0.00 0.00 0.00 0.00 0.00 0.00 0.00 0.00 0.00 0.00 0.00 0.00 0.00 0.00 0.00 0.00 0.00 0.00 0.00 0.00 0.00 0.00 0.00 0.00 0.00 0.00 0.00 0.00 0.00 0.00 0.00 0.00 0.00 0.00 0.00 0.00 0.00 0.00 0.00 0.00 0.00 0.00 0.00 0.00 0.00 0.00 0.00 0.00 0.00
0.00 0.00 0.00 0.00 0.00 0.00 0.00 0.00 0.00 0.00 0.00 0.00 0.00 0.00 0.00 0.00 0.00 0.00 0.00 0.00 0.00 0.00 0.00 0.00 0.00 0.00 0.00 0.00 0.00 0.00 0.00 0.00 0.00 0.00 0.00 0.00 0.00 0.00 0.00 0.00 0.00 0.00 0.00 0.00 0.00 0.00 0.00 0.00 0.00
0.00 0.00 0.00 0.00 0.00 0.00 0.00 0.00 0.00 0.00 0.00 0.00 0.00 0.00 0.00 0.00 0.00 0.00 0.00 0.00 0.00 0.00 0.00 0.00 0.00 0.00 0.00 0.00 0.00 0.00 0.00 0.00 0.00 0.00 0.00 0.00 0.00 0.00 0.00 0.00 0.00 0.00 0.00 0.00 0.00 0.00 0.00 0.00 0.00
0.00 0.00 0.00 0.00 0.00 0.00 0.00 0.00 0.00 0.00 0.00 0.00 0.00 0.00 0.00 0.00 0.00 0.00 0.00 0.00 0.00 0.00 0.00 0.00 0.00 0.00 0.00 0.00 0.00 0.00 0.00 0.00 0.00 0.00 0.00 0.00 0.00 0.00 0.00 0.00 0.00 0.00 0.00 0.00 0.00 0.00 0.00 0.00 0.00
0.00 0.00 0.00 0.00 0.00 0.00 0.00 0.00 0.00 0.00 0.00 0.00 0.00 0.00 0.00 0.00 0.00 0.00 0.00 0.00 0.00 0.00 0.00 0.00 0.00 0.00 0.00 0.00 0.00 0.00 0.00 0.00 0.00 0.00 0.00 0.00 0.00 0.00 0.00 0.00 0.00 0.00 0.00 0.00 0.00 0.00 0.00 0.00 0.00
0.00 0.00 0.00 0.00 0.00 0.00 0.00 0.00 0.00 0.00 0.00 0.00 0.00 0.00 0.00 0.00 0.00 0.00 0.00 0.00 0.00 0.00 0.01 0.00 0.00 0.00 0.00 0.00 0.00 0.00 0.00 0.00 0.00 0.00 0.00 0.00 0.00 0.00 0.00 0.00 0.00 0.00 0.00 0.00 0.00 0.00 0.00 0.00 0.00
0.00 0.00 0.00 0.00 0.00 0.00 0.00 0.00 0.00 0.00 0.00 0.00 0.00 0.00 0.00 0.00 0.00 0.00 0.00 0.01 0.02 0.02 0.03 0.00 0.00 0.00 0.00 0.00 0.00 0.00 0.00 0.00 0.00 0.00 0.00 0.00 0.00 0.00 0.00 0.00 0.00 0.00 0.00 0.00 0.00 0.00 0.00 0.00 0.00
0.00 0.00 0.00 0.00 0.00 0.00 0.00 0.00 0.00 0.00 0.00 0.00 0.00 0.00 0.00 0.00 0.00 0.00 0.00 0.00 0.01 0.01 0.00 0.00 0.00 0.00 0.00 0.00 0.00 0.00 0.00 0.00 0.00 0.00 0.00 0.00 0.00 0.00 0.00 0.00 0.00 0.00 0.00 0.00 0.00 0.00 0.00 0.00 0.00
0.00 0.00 0.00 0.00 0.00 0.00 0.00 0.00 0.00 0.00 0.00 0.00 0.00 0.00 0.00 0.00 0.00 0.00 0.00 0.00 0.00 0.00 0.00 0.00 0.00 0.00 0.00 0.00 0.00 0.00 0.00 0.00 0.00 0.00 0.00 0.00 0.00 0.00 0.00 0.00 0.00 0.00 0.00 0.00 0.00 0.00 0.00 0.00 0.00
0.01 0.00 0.00 0.00 0.00 0.00 0.00 0.00 0.00 0.00 0.00 0.00 0.00 0.00 0.00 0.00 0.00 0.00 0.00 0.00 0.00 0.00 0.00 0.01 0.01 0.00 0.00 0.00 0.00 0.00 0.00 0.00 0.00 0.00 0.00 0.00 0.00 0.00 0.00 0.00 0.00 0.00 0.00 0.00 0.00 0.00 0.00 0.00 0.00
0.00 0.00 0.00 0.00 0.00 0.00 0.00 0.00 0.00 0.00 0.00 0.00 0.00 0.00 0.00 0.00 0.00 0.00 0.00 0.00 0.00 0.00 0.01 0.05 0.04 0.02 0.00 0.00 0.00 0.00 0.00 0.00 0.00 0.00 0.00 0.00 0.00 0.00 0.00 0.00 0.00 0.00 0.00 0.00 0.00 0.00 0.00 0.00 0.00
0.00 0.00 0.01 0.00 0.00 0.00 0.00 0.00 0.00 0.00 0.00 0.00 0.00 0.00 0.00 0.00 0.00 0.00 0.00 0.00 0.00 0.00 0.00 0.02 0.02 0.01 0.00 0.00 0.00 0.00 0.00 0.00 0.00 0.00 0.00 0.00 0.00 0.00 0.00 0.00 0.00 0.00 0.00 0.00 0.00 0.00 0.00 0.00 0.00
0.01 0.03 0.05 0.01 0.00 0.00 0.00 0.00 0.00 0.00 0.00 0.00 0.00 0.00 0.00 0.00 0.00 0.00 0.00 0.00 0.00 0.00 0.00 0.00 0.00 0.00 0.01 0.00 0.00 0.00 0.00 0.00 0.00 0.00 0.00 0.00 0.00 0.00 0.00 0.00 0.00 0.00 0.00 0.00 0.00 0.00 0.00 0.00 0.00
0.04 0.06 0.02 0.03 0.00 0.00 0.00 0.00 0.00 0.00 0.00 0.00 0.00 0.00 0.00 0.00 0.00 0.00 0.00 0.00 0.00 0.00 0.00 0.00 0.00 0.00 0.00 0.00 0.00 0.00 0.00 0.00 0.00 0.00 0.00 0.00 0.00 0.00 0.00 0.00 0.00 0.00 0.00 0.00 0.00 0.00 0.00 0.00 0.00
0.06 0.06 0.04 0.05 0.03 0.03 0.00 0.00 0.00 0.00 0.00 0.00 0.00 0.00 0.00 0.00 0.00 0.00 0.00 0.00 0.00 0.00 0.00 0.00 0.00 0.00 0.00 0.00 0.00 0.02 0.03 0.02 0.00 0.00 0.00 0.00 0.00 0.00 0.00 0.00 0.00 0.01 0.01 0.01 0.01 0.00 0.00 0.00 0.00
0.05 0.07 0.06 0.06 0.07 0.02 0.00 0.01 0.01 0.01 0.01 0.00 0.00 0.00 0.00 0.00 0.00 0.00 0.00 0.00 0.00 0.00 0.00 0.00 0.00 0.00 0.00 0.00 0.01 0.04 0.06 0.10 0.03 0.00 0.00 0.00 0.00 0.00 0.00 0.00 0.02 0.05 0.05 0.04 0.04 0.02 0.01 0.00 0.00
0.03 0.10 0.12 0.12 0.06 0.01 0.00 0.02 0.01 0.04 0.04 0.01 0.00 0.00 0.00 0.01 0.01 0.00 0.00 0.00 0.00 0.00 0.00 0.00 0.00 0.00 0.01 0.03 0.05 0.07 0.07 0.06 0.05 0.01 0.00 0.00 0.00 0.00 0.01 0.03 0.05 0.05 0.06 0.05 0.04 0.03 0.02 0.01 0.04
MSLP
1010.79 1011.14 1011.34 1011.81 1013.17 1013.40 1012.41 1011.01 1009.62 1008.96 1008.37 1007.31 1007.23 1007.44 1007.24 1006.57 1007.13 1008.48 1008.08 1008.34 1008.43 1009.09 1009.46 1009.93 1010.34 1010.39 1010.50 1010.62 1010.78 1010.87 1011.08 1011.37 1011.58 1012.03 1012.42 1012.89 1013.39 1013.70 1014.01 1014.39 1014.76 1015.04 1015.42 1016.00 1016.22 1016.40 1016.81 1017.26 1017.38
1011.01 1011.28 1011.73 1012.50 1013.43 1013.38 1012.08 1010.17 1009.07 1008.12 1007.14 1006.91 1007.12 1006.93 1006.86 1006.73 1006.83 1007.76 1008.27 1008.37 1008.56 1009.01 1009.49 1009.93 1010.45 1010.49 1010.60 1010.77 1010.98 1011.03 1011.24 1011.60 1011.96 1012.38 1012.82 1013.23 1013.63 1013.94 1014.19 1014.53 1015.08 1015.57 1015.83 1016.28 1016.63 1016.69 1017.22 1017.57 1017.59
1010.88 1011.09 1012.19 1013.03 1013.17 1012.36 1011.27 1009.19 1008.14 1007.56 1007.13 1006.97 1007.00 1006.69 1006.74 1006.90 1007.14 1007.70 1007.93 1008.44 1008.72 1009.35 1009.62 1009.99 1010.46 1010.66 1010.78 1010.91 1011.07 1011.28 1011.32 1011.95 1012.41 1012.79 1013.04 1013.44 1013.78 1014.10 1014.38 1014.90 1015.31 1015.65 1015.98 1016.35 1016.57 1017.05 1017.61 1017.86 1017.72
1011.12 1011.85 1013.02 1013.15 1012.46 1011.55 1010.08 1008.53 1008.07 1007.59 1007.18 1006.99 1006.85 1006.76 1006.71 1006.69 1006.92 1007.39 1008.13 1008.45 1008.88 1009.71 1009.72 1010.21 1010.56 1010.80 1010.99 1011.07 1011.27 1011.50 1011.70 1012.26 1012.84 1013.04 1013.32 1013.64 1014.03 1014.38 1014.76 1015.07 1015.56 1015.81 1016.16 1016.50 1016.91 1017.40 1017.82 1017.88 1018.08
1011.55 1012.56 1013.37 1013.34 1012.08 1010.99 1009.57 1008.43 1007.93 1007.49 1007.02 1006.49 1006.61 1006.69 1007.02 1007.10 1007.21 1007.63 1008.06 1008.51 1008.88 1009.52 1009.95 1010.33 1010.78 1011.00 1011.20 1011.29 1011.51 1011.76 1012.03 1012.43 1013.05 1013.50 1013.71 1013.88 1014.30 1014.78 1015.09 1015.46 1015.96 1016.26 1016.54 1016.80 1017.13 1017.57 1017.72 1018.11 1018.53
1012.32 1013.12 1013.97 1013.37 1011.66 1010.49 1009.23 1008.03 1007.52 1007.20 1006.54 1006.18 1006.47 1006.89 1007.46 1007.59 1007.75 1008.19 1008.13 1008.49 1009.15 1009.32 1010.08 1010.38 1010.84 1011.20 1011.37 1011.57 1011.82 1012.24 1012.35 1012.83 1013.31 1013.71 1013.97 1014.22 1014.61 1015.14 1015.57 1015.88 1016.32 1016.53 1016.81 1017.11 1017.34 1017.61 1017.96 1018.38 1018.87
1012.27 1013.41 1013.33 1012.70 1011.37 1010.24 1008.73 1007.50 1007.03 1006.57 1006.09 1005.86 1005.66 1006.46 1007.48 1008.04 1008.10 1008.41 1009.02 1008.83 1009.02 1009.77 1010.24 1010.63 1010.96 1011.32 1011.62 1011.85 1012.13 1012.52 1012.70 1013.11 1013.56 1014.04 1014.34 1014.69 1015.14 1015.50 1015.93 1016.34 1016.57 1016.79 1016.96 1017.38 1017.60 1017.95 1018.29 1018.78 1019.25
1011.93 1012.69 1012.86 1012.24 1010.84 1009.30 1007.97 1007.23 1006.19 1006.22 1005.74 1005.47 1005.52 1005.96 1006.80 1007.15 1008.21 1008.81 1009.46 1009.55 1009.38 1010.00 1010.45 1010.97 1011.08 1011.43 1011.83 1012.03 1012.33 1012.67 1012.97 1013.32 1013.86 1014.34 1014.68 1014.99 1015.54 1015.81 1016.27 1016.48 1016.78 1016.90 1017.15 1017.60 1017.87 1018.17 1018.50 1018.96 1019.49
1011.59 1012.49 1012.24 1011.15 1010.25 1008.72 1007.48 1007.10 1006.23 1005.76 1005.87 1005.61 1005.54 1005.71 1005.91 1006.76 1008.18 1008.90 1009.52 1009.93 1009.68 1010.03 1010.53 1010.99 1011.26 1011.55 1011.87 1012.25 1012.55 1012.88 1013.23 1013.42 1013.99 1014.59 1014.99 1015.36 1015.82 1016.26 1016.51 1016.67 1016.91 1017.25 1017.56 1017.89 1018.19 1018.46 1018.70 1018.93 1019.68
1011.57 1011.86 1010.85 1009.73 1008.87 1008.19 1007.63 1007.23 1006.61 1006.17 1006.01 1005.55 1005.43 1005.46 1006.22 1006.98 1008.05 1008.34 1008.94 1009.51 1009.55 1009.60 1010.22 1011.11 1011.27 1011.56 1011.83 1012.25 1012.70 1013.13 1013.56 1013.85 1014.12 1014.77 1015.33 1015.64 1016.00 1016.65 1016.77 1016.96 1017.30 1017.75 1018.03 1018.42 1018.69 1019.00 1019.32 1019.41 1020.07
1010.83 1010.22 1009.90 1009.14 1008.40 1007.89 1007.65 1007.29 1006.77 1006.39 1006.01 1005.27 1005.23 1005.65 1006.28 1007.10 1007.89 1008.34 1008.52 1008.78 1008.80 1009.50 1009.99 1010.87 1011.27 1011.37 1011.69 1012.13 1012.69 1013.25 1013.68 1014.22 1014.39 1014.91 1015.46 1016.05 1016.35 1016.94 1017.16 1017.36 1017.80 1018.10 1018.39 1018.88 1019.23 1019.56 1019.77 1020.04 1020.41
1010.57 1009.61 1009.48 1008.62 1008.00 1007.89 1007.69 1007.19 1006.55 1006.26 1005.10 1004.82 1004.88 1005.23 1006.18 1006.83 1007.25 1007.58 1008.33 1008.78 1008.90 1009.59 1009.97 1010.65 1011.35 1011.44 1011.52 1012.09 1012.58 1013.24 1013.79 1014.33 1014.60 1015.02 1015.47 1016.06 1016.63 1017.42 1017.65 1017.73 1018.12 1018.39 1018.73 1019.14 1019.53 1019.92 1020.25 1020.63 1020.88
1010.00 1009.41 1008.92 1008.16 1007.63 1007.55 1007.35 1006.85 1006.54 1005.54 1004.24 1004.49 1004.74 1005.22 1005.71 1006.28 1007.10 1007.97 1008.81 1008.90 1008.96 1009.30 1009.86 1010.57 1011.18 1011.46 1011.51 1012.17 1012.51 1013.11 1013.85 1014.35 1014.60 1015.05 1015.40 1015.95 1016.53 1017.43 1017.78 1018.16 1018.36 1018.71 1018.92 1019.25 1019.85 1020.17 1020.53 1021.09 1021.47
1009.41 1008.90 1008.37 1007.79 1007.25 1007.18 1007.11 1006.68 1006.59 1004.02 1003.79 1004.39 1004.61 1004.89 1005.11 1005.33 1005.70 1007.07 1007.88 1008.46 1008.63 1008.84 1009.43 1010.31 1010.99 1011.44 1011.50 1012.16 1012.73 1013.06 1013.81 1014.37 1014.68 1015.04 1015.35 1015.92 1016.49 1017.18 1017.90 1018.38 1018.70 1019.01 1019.14 1019.53 1019.91 1020.26 1020.80 1021.37 1022.01
1009.31 1008.91 1007.97 1007.20 1006.94 1006.64 1006.60 1005.93 1004.29 1003.19 1004.13 1003.83 1003.77 1003.69 1004.15 1004.58 1005.31 1005.09 1006.20 1007.34 1008.13 1008.48 1009.00 1009.99 1010.79 1011.42 1011.68 1012.08 1012.89 1013.16 1013.64 1014.34 1014.73 1015.08 1015.36 1015.90 1016.52 1017.07 1017.80 1018.34 1018.84 1019.14 1019.31 1019.70 1020.18 1020.76 1021.24 1021.87 1022.55
1009.55 1009.38 1008.13 1006.95 1006.27 1006.06 1005.93 1004.10 1002.37 1003.22 1003.60 1003.39 1003.22 1002.77 1003.36 1004.03 1003.82 1004.70 1005.80 1006.35 1007.57 1008.22 1008.82 1009.69 1010.53 1011.18 1011.62 1012.03 1012.80 1013.20 1013.59 1014.17 1014.74 1015.03 1015.37 1015.78 1016.47 1017.05 1017.65 1018.20 1018.78 1019.10 1019.39 1019.85 1020.53 1021.04 1021.81 1022.42 1022.87
1010.14 1009.15 1008.61 1007.69 1006.51 1006.15 1006.00 1003.06 1002.78 1002.68 1003.09 1002.86 1002.82 1002.60 1002.96 1003.38 1004.05 1004.49 1005.14 1005.92 1006.90 1007.70 1008.60 1009.40 1010.13 1010.86 1011.38 1011.98 1012.79 1013.22 1013.62 1013.98 1014.61 1015.06 1015.36 1015.65 1016.25 1016.89 1017.47 1017.98 1018.57 1018.88 1019.44 1020.13 1020.66 1021.45 1021.80 1022.66 1023.34
1010.16 1009.62 1008.41 1007.46 1006.70 1006.03 1005.64 1003.34 1003.30 1003.11 1003.12 1002.90 1002.59 1002.38 1002.32 1002.66 1002.80 1003.46 1004.33 1005.51 1006.70 1007.55 1008.38 1009.08 1009.55 1010.45 1011.17 1011.92 1012.67 1013.36 1013.81 1014.14 1014.37 1014.94 1015.19 1015.56 1015.95 1016.53 1017.30 1017.83 1018.31 1018.76 1019.41 1020.21 1020.69 1021.22 1022.15 1022.68 1023.26
1010.49 1009.58 1008.34 1007.42 1006.96 1006.76 1005.92 1003.86 1003.56 1003.63 1003.26 1002.86 1002.53 1002.36 1002.01 1001.90 1002.12 1003.02 1003.88 1004.95 1006.35 1007.34 1008.06 1008.54 1009.06 1009.94 1010.79 1011.54 1012.45 1013.18 1013.45 1014.08 1014.28 1014.73 1015.13 1015.50 1015.76 1016.15 1016.89 1017.49 1018.00 1018.49 1019.11 1019.61 1020.36 1021.43 1022.07 1023.12 1023.54
1010.84 1009.78 1007.79 1006.62 1007.18 1006.90 1006.05 1004.04 1003.96 1003.44 1002.50 1002.03 1001.79 1001.59 1001.38 1001.69 1002.05 1002.70 1003.45 1004.31 1005.18 1006.28 1007.47 1008.04 1008.55 1009.25 1009.91 1010.85 1011.80 1012.46 1012.88 1013.57 1013.78 1014.05 1014.68 1015.06 1015.57 1015.93 1016.48 1016.96 1017.55 1017.85 1018.71 1019.62 1020.31 1020.73 1022.19 1023.22 1023.36
1010.83 1010.03 1008.13 1007.74 1007.46 1006.58 1006.01 1003.68 1003.63 1002.66 1001.99 1001.29 1000.79 1000.29 1000.41 1000.49 1000.95 1001.86 1002.61 1003.35 1004.39 1005.09 1005.82 1006.42 1007.50 1008.51 1009.05 1010.04 1011.40 1012.11 1012.74 1013.23 1013.59 1013.72 1014.22 1014.63 1014.98 1015.48 1015.87 1016.46 1017.01 1017.58 1018.13 1018.98 1019.60 1020.17 1020.88 1022.13 1023.19
1010.91 1009.41 1008.54 1008.02 1007.68 1006.06 1006.02 1003.34 1003.22 1002.18 1001.30 1000.87 1000.04 999.99 999.76 999.70 1000.04 1000.62 1001.34 1002.28 1003.05 1003.62 1005.00 1005.85 1006.54 1007.59 1008.45 1008.94 1010.39 1011.07 1011.26 1011.70 1012.18 1012.74 1013.53 1013.95 1014.20 1014.76 1015.28 1015.85 1016.46 1017.15 1017.72 1018.61 1019.19 1019.68 1020.14 1020.81 1022.18
1011.53 1009.57 1008.68 1007.89 1007.22 1006.56 1005.58 1004.27 1000.87 1001.45 1000.96 1000.00 999.33 998.86 998.67 998.48 999.12 999.62 1000.24 1000.96 1001.36 1002.86 1003.75 1004.68 1005.66 1006.68 1007.55 1008.03 1009.02 1010.07 1010.74 1011.14 1011.50 1012.15 1012.78 1013.46 1014.00 1014.26 1014.77 1015.32 1016.01 1016.78 1017.40 1018.07 1018.71 1019.46 1019.97 1020.51 1021.33
1011.72 1009.78 1008.23 1007.72 1007.16 1006.15 1004.53 1004.10 1001.12 1000.42 999.39 999.18 998.74 998.38 997.98 997.86 997.97 998.56 998.99 1000.07 1000.86 1001.80 1003.08 1004.39 1005.39 1006.19 1007.04 1007.43 1008.29 1008.85 1009.61 1010.43 1011.06 1011.54 1012.14 1012.76 1013.51 1014.04 1014.30 1014.81 1015.43 1015.93 1016.58 1017.35 1017.94 1018.65 1019.39 1020.02 1020.63
1011.71 1010.69 1008.66 1007.78 1006.71 1004.00 1003.81 1003.10 1000.47 999.29 998.62 998.12 998.03 997.91 997.70 997.49 997.63 997.80 998.51 999.19 1000.17 1001.08 1001.92 1003.39 1004.55 1005.23 1005.95 1006.81 1007.54 1007.95 1008.44 1009.32 1010.12 1010.77 1011.48 1012.19 1012.79 1013.31 1013.86 1014.48 1015.18 1015.70 1016.07 1016.68 1017.39 1018.24 1018.96 1019.57 1020.22
1012.06 1011.33 1008.79 1006.81 1004.74 1003.31 1002.65 1001.36 999.80 999.22 998.60 998.73 997.99 997.87 997.80 997.29 997.03 996.96 997.44 998.06 998.71 999.91 1000.84 1001.81 1002.91 1004.10 1005.05 1005.89 1006.45 1007.18 1007.91 1008.49 1008.94 1009.87 1010.48 1011.22 1011.90 1012.66 1013.36 1014.02 1014.55 1015.01 1015.45 1016.21 1016.80 1017.76 1018.40 1019.09 1019.75
1012.80 1011.47 1009.91 1008.04 1004.61 1003.41 1002.09 1001.21 1000.22 1000.24 1000.08 999.73 999.42 999.27 999.11 998.41 997.32 996.32 996.51 997.18 997.92 998.89 999.74 1000.22 1001.41 1002.69 1003.78 1004.49 1005.38 1006.34 1006.87 1007.61 1008.16 1009.03 1009.85 1010.51 1011.14 1011.93 1012.75 1013.52 1013.95 1014.53 1015.02 1015.72 1016.49 1017.31 1018.00 1018.61 1019.18
1015.03 1013.59 1010.12 1008.80 1006.41 1004.42 1002.05 1002.02 1002.52 1001.84 1001.12 1000.71 1000.41 1000.20 999.83 998.95 997.82 996.39 996.32 996.85 997.36 997.83 998.43 999.57 1000.39 1001.12 1001.97 1003.22 1004.13 1004.95 1005.64 1006.57 1007.81 1008.29 1009.24 1009.98 1010.68 1011.37 1012.07 1012.83 1013.60 1014.19 1014.67 1015.35 1016.10 1016.91 1017.52 1018.21 1018.74
1015.02 1013.49 1012.64 1010.82 1008.01 1006.24 1004.14 1004.59 1005.26 1004.35 1003.16 1002.42 1001.94 1001.59 1001.00 999.96 998.75 997.62 996.79 996.36 996.91 997.95 998.85 999.15 1000.03 1001.08 1002.03 1002.86 1003.60 1004.72 1005.72 1006.48 1007.57 1008.12 1008.75 1009.42 1010.34 1011.02 1011.63 1012.24 1012.86 1013.77 1014.34 1015.04 1015.80 1016.36 1016.87 1017.56 1018.30
1016.68 1015.58 1014.60 1013.18 1010.08 1008.10 1006.49 1006.48 1006.93 1005.88 1004.91 1004.18 1003.82 1003.13 1002.24 1001.43 1000.25 998.87 997.95 997.24 997.29 997.80 998.61 999.44 1000.16 1000.83 1001.70 1002.27 1003.07 1004.12 1005.34 1006.26 1007.21 1007.82 1008.48 1009.21 1009.98 1010.70 1011.07 1011.82 1012.48 1012.96 1013.67 1014.44 1015.09 1015.88 1016.47 1017.07 1017.87
Thickness
5709 5708 5708 5701 5676 5670 5673 5693 5716 5713 5718 5734 5735 5730 5731 5741 5734 5715 5744 5744 5743 5735 5729 5723 5723 5725 5724 5724 5722 5720 5718 5716 5715 5712 5711 5709 5706 5706 5705 5703 5702 5701 5699 5697 5697 5699 5699 5701 5704
5702 5702 5697 5682 5663 5657 5674 5703 5710 5715 5733 5737 5733 5735 5734 5735 5743 5738 5738 5741 5739 5733 5728 5724 5721 5723 5722 5722 5720 5718 5717 5715 5713 5710 5709 5708 5706 5706 5706 5705 5701 5699 5699 5698 5696 5699 5698 5701 5705
5698 5697 5681 5667 5659 5658 5677 5710 5713 5725 5731 5730 5726 5737 5737 5737 5741 5738 5741 5738 5736 5730 5725 5724 5721 5719 5720 5720 5719 5717 5716 5712 5710 5707 5708 5706 5706 5705 5707 5705 5702 5702 5702 5700 5700 5700 5698 5699 5704
5688 5681 5669 5656 5665 5677 5696 5716 5714 5716 5724 5728 5730 5727 5739 5745 5745 5744 5740 5737 5733 5725 5724 5721 5719 5718 5716 5718 5717 5715 5715 5710 5706 5706 5706 5705 5704 5704 5704 5705 5703 5703 5702 5700 5700 5699 5698 5701 5703
5676 5665 5650 5651 5665 5683 5698 5708 5711 5712 5718 5725 5728 5728 5730 5740 5746 5743 5739 5736 5730 5725 5722 5721 5717 5715 5713 5715 5715 5712 5712 5709 5706 5703 5704 5704 5703 5702 5702 5702 5702 5701 5701 5701 5701 5700 5701 5701 5701
5658 5654 5635 5645 5670 5685 5694 5706 5708 5708 5715 5725 5722 5724 5725 5734 5734 5734 5736 5734 5728 5727 5721 5720 5716 5711 5710 5711 5711 5708 5710 5707 5704 5702 5702 5702 5702 5699 5699 5701 5702 5701 5700 5700 5701 5701 5701 5700 5699
5653 5637 5636 5648 5659 5674 5691 5705 5704 5704 5711 5717 5732 5719 5724 5724 5729 5730 5727 5729 5729 5724 5720 5717 5714 5710 5707 5708 5708 5706 5707 5705 5702 5700 5699 5698 5696 5696 5697 5699 5700 5700 5700 5699 5699 5699 5700 5698 5697
5650 5640 5640 5645 5666 5669 5697 5703 5712 5703 5706 5724 5733 5720 5719 5726 5725 5723 5722 5722 5725 5722 5716 5713 5711 5709 5706 5706 5706 5704 5704 5703 5700 5698 5696 5696 5694 5693 5695 5697 5698 5699 5699 5697 5696 5698 5700 5698 5696
5649 5630 5626 5651 5656 5673 5694 5688 5700 5710 5705 5713 5725 5725 5734 5732 5722 5718 5716 5715 5719 5719 5715 5710 5709 5707 5706 5703 5703 5701 5701 5703 5699 5695 5694 5693 5693 5692 5693 5696 5696 5696 5696 5696 5697 5698 5699 5700 5695
5638 5620 5639 5662 5671 5672 5681 5681 5688 5690 5691 5704 5716 5724 5729 5728 5720 5717 5715 5713 5715 5718 5714 5707 5708 5707 5705 5702 5701 5699 5698 5698 5698 5695 5692 5691 5692 5691 5692 5695 5694 5693 5693 5692 5692 5693 5694 5695 5690
5636 5642 5649 5660 5669 5672 5669 5674 5681 5678 5678 5700 5708 5713 5718 5718 5716 5711 5716 5717 5719 5717 5713 5707 5705 5705 5705 5703 5700 5697 5696 5694 5696 5694 5692 5690 5691 5690 5691 5693 5691 5691 5691 5689 5690 5690 5690 5690 5687
5626 5640 5643 5658 5663 5663 5660 5670 5673 5672 5694 5706 5710 5715 5712 5714 5715 5712 5711 5712 5714 5712 5710 5706 5703 5703 5705 5702 5699 5696 5693 5692 5694 5693 5692 5691 5689 5688 5688 5691 5690 5690 5690 5689 5688 5688 5687 5684 5683
5624 5634 5639 5650 5656 5656 5660 5663 5664 5676 5702 5701 5705 5707 5710 5714 5713 5706 5703 5706 5710 5710 5708 5703 5701 5700 5702 5699 5697 5695 5692 5690 5691 5692 5692 5690 5689 5687 5688 5688 5688 5687 5689 5688 5686 5686 5685 5681 5679
5627 5629 5635 5641 5648 5649 5651 5658 5656 5694 5700 5689 5693 5700 5708 5715 5718 5710 5705 5703 5706 5710 5708 5702 5699 5698 5699 5698 5693 5694 5691 5689 5689 5691 5691 5690 5688 5687 5686 5685 5685 5685 5686 5686 5685 5684 5682 5679 5675
5616 5615 5629 5639 5640 5639 5642 5646 5667 5702 5686 5687 5691 5706 5710 5714 5714 5720 5713 5707 5705 5707 5707 5701 5696 5695 5696 5696 5691 5690 5690 5688 5687 5689 5690 5689 5687 5686 5686 5685 5684 5683 5683 5683 5681 5680 5678 5675 5671
5598 5599 5603 5627 5632 5636 5637 5647 5692 5681 5677 5681 5687 5705 5707 5710 5721 5719 5713 5711 5706 5706 5704 5699 5695 5693 5693 5694 5690 5687 5688 5688 5686 5687 5689 5689 5687 5686 5685 5685 5683 5682 5680 5679 5677 5676 5673 5671 5669
5572 5585 5589 5598 5621 5626 5619 5653 5675 5675 5674 5679 5682 5694 5701 5706 5708 5714 5713 5709 5706 5704 5699 5695 5694 5692 5692 5689 5686 5685 5684 5686 5685 5686 5687 5689 5688 5686 5685 5684 5683 5682 5680 5677 5675 5672 5672 5667 5664
5559 5560 5571 5580 5600 5606 5609 5640 5652 5657 5664 5671 5675 5686 5698 5702 5710 5716 5714 5707 5702 5699 5695 5692 5693 5690 5689 5686 5683 5680 5680 5681 5685 5685 5686 5687 5688 5687 5684 5683 5682 5681 5679 5676 5674 5673 5667 5666 5663
5546 5554 5567 5579 5588 5582 5591 5622 5634 5636 5644 5654 5665 5677 5688 5697 5710 5711 5709 5704 5698 5693 5691 5693 5693 5690 5688 5686 5682 5679 5681 5681 5684 5685 5685 5685 5687 5688 5686 5684 5682 5681 5679 5679 5675 5669 5666 5659 5657
5524 5533 5556 5578 5568 5565 5578 5600 5612 5623 5641 5652 5662 5673 5684 5691 5697 5702 5704 5703 5700 5695 5688 5689 5691 5690 5691 5687 5682 5680 5681 5681 5683 5685 5686 5687 5687 5687 5686 5686 5683 5683 5680 5675 5672 5671 5661 5655 5655
5506 5512 5539 5542 5543 5551 5559 5584 5598 5620 5633 5646 5659 5676 5684 5692 5696 5698 5701 5702 5700 5699 5698 5699 5693 5691 5692 5690 5679 5677 5676 5675 5677 5685 5686 5687 5687 5686 5686 5685 5684 5682 5681 5676 5675 5672 5668 5659 5653
5483 5518 5522 5521 5516 5531 5548 5557 5582 5606 5623 5633 5654 5663 5676 5688 5694 5699 5703 5703 5704 5705 5698 5697 5695 5691 5690 5693 5683 5682 5686 5687 5689 5690 5687 5687 5687 5687 5686 5684 5684 5681 5679 5676 5673 5671 5670 5667 5657
5459 5492 5501 5510 5508 5513 5532 5534 5597 5597 5607 5628 5647 5664 5677 5689 5691 5697 5702 5706 5711 5702 5701 5700 5696 5692 5691 5694 5689 5685 5684 5687 5687 5687 5687 5685 5684 5685 5685 5683 5680 5678 5676 5674 5671 5666 5664 5664 5659
5457 5472 5493 5496 5497 5483 5534 5537 5569 5582 5626 5635 5645 5656 5675 5684 5691 5697 5703 5705 5704 5704 5698 5691 5689 5688 5687 5690 5687 5689 5688 5686 5685 5687 5686 5684 5682 5682 5682 5680 5678 5676 5675 5671 5669 5666 5664 5661 5658
5445 5443 5476 5468 5467 5490 5535 5531 5571 5602 5625 5640 5647 5652 5664 5678 5683 5690 5691 5696 5698 5697 5699 5691 5686 5688 5688 5687 5687 5690 5692 5690 5687 5686 5685 5682 5682 5682 5680 5677 5673 5672 5672 5669 5666 5664 5660 5658 5654
5427 5432 5478 5484 5499 5513 5534 5527 5571 5607 5627 5622 5635 5644 5650 5666 5680 5687 5691 5695 5700 5699 5698 5696 5693 5689 5687 5687 5688 5688 5688 5690 5691 5688 5687 5685 5684 5683 5678 5676 5674 5671 5670 5667 5665 5661 5658 5654 5649
5424 5444 5444 5455 5509 5516 5526 5546 5567 5573 5583 5598 5609 5617 5626 5638 5662 5685 5693 5694 5696 5696 5697 5701 5697 5693 5690 5688 5686 5685 5688 5688 5690 5688 5686 5684 5684 5682 5677 5674 5673 5671 5669 5665 5661 5657 5653 5649 5646
5393 5404 5447 5452 5498 5508 5529 5532 5521 5547 5567 5587 5596 5605 5619 5635 5647 5676 5687 5689 5693 5698 5700 5699 5698 5698 5699 5693 5689 5689 5691 5687 5682 5683 5680 5680 5679 5676 5674 5671 5669 5666 5664 5661 5657 5653 5649 5644 5640
5390 5402 5409 5424 5461 5490 5520 5513 5503 5518 5545 5565 5577 5587 5601 5618 5639 5656 5670 5688 5689 5686 5685 5691 5692 5689 5688 5687 5687 5681 5679 5679 5675 5675 5674 5673 5669 5668 5667 5666 5663 5658 5657 5654 5650 5647 5644 5640 5634
5387 5382 5386 5403 5439 5469 5485 5500 5478 5491 5521 5539 5549 5566 5582 5596 5613 5639 5655 5669 5676 5678 5678 5678 5681 5684 5684 5686 5683 5679 5673 5671 5668 5666 5664 5663 5662 5659 5658 5658 5657 5656 5652 5649 5646 5641 5637 5633 5628